CST,Max TemperatureF,Mean TemperatureF,Min TemperatureF,Max Dew PointF,MeanDew PointF,Min DewpointF,Max Humidity, Mean Humidity, Min Humidity, Max Sea Level PressureIn, Mean Sea Level PressureIn, Min Sea Level PressureIn, Max VisibilityMiles, Mean VisibilityMiles, Min VisibilityMiles, Max Wind SpeedMPH, Mean Wind SpeedMPH, Max Gust SpeedMPH,PrecipitationIn, CloudCover, Events, WindDirDegrees
2014-1-1,24,20,15,19,16,10,88,81,74,30.24,30.18,30.14,10,5,1,20,12,25,0.15,7,Snow,43
2014-1-2,16,9,2,9,6,-2,86,77,67,30.50,30.30,30.14,10,7,2,16,9,24,0.01,6,Snow,342
2014-1-3,22,9,-4,14,3,-8,87,77,67,30.51,30.30,29.95,10,9,0,29,14,36,0.00,1,Fog,186
2014-1-4,36,29,21,29,21,13,92,74,56,30.02,29.96,29.88,10,6,1,23,12,30,0.21,5,Snow,286
2014-1-5,25,10,-5,22,8,-17,92,74,56,30.29,30.06,29.98,10,2,0,23,14,37,0.39,7,Fog-Snow,355
2014-1-6,-5,-9,-14,-17,-20,-24,65,60,54,30.45,30.38,30.26,10,10,5,23,13,34,0.00,3,,282
2014-1-7,11,1,-10,2,-7,-17,80,72,63,30.42,30.35,30.27,10,10,10,16,7,19,0.00,5,,187
2014-1-8,16,10,3,4,2,0,87,73,58,30.54,30.45,30.30,10,10,10,9,4,11,0.00,7,,31
2014-1-9,30,21,12,29,18,3,92,80,67,30.53,30.33,30.16,10,4,1,12,7,15,0.04,8,Snow,126
2014-1-10,40,35,30,38,34,29,100,95,89,30.14,29.83,29.51,10,3,0,21,11,25,0.71,8,Fog-Rain,170
2014-1-11,40,35,30,37,30,25,100,82,64,29.89,29.64,29.48,10,7,0,20,12,28,0.01,7,Fog,284
2014-1-12,47,37,26,34,30,24,92,71,50,29.91,29.77,29.61,10,9,6,25,15,34,0.00,2,,191
2014-1-13,46,37,28,34,30,23,73,59,45,29.84,29.71,29.58,10,10,7,21,9,27,0.00,2,,258
2014-1-14,37,30,23,32,23,13,72,59,45,30.03,29.82,29.69,10,8,1,30,15,44,0.04,7,Rain,264
2014-1-15,24,19,14,14,9,6,74,66,57,30.19,30.10,29.91,10,10,6,20,10,25,T,5,Snow,272
2014-1-16,42,29,15,31,22,8,85,70,55,29.86,29.70,29.58,10,8,0,24,13,34,0.09,8,Fog-Snow,271
2014-1-17,15,11,6,7,4,0,76,72,67,30.10,29.98,29.81,10,8,2,18,11,25,0.01,7,Snow,279
2014-1-18,28,18,7,23,15,4,84,76,67,30.03,29.79,29.62,10,6,1,18,8,25,0.04,7,Snow,140
2014-1-19,46,30,14,29,20,9,84,69,53,30.00,29.81,29.65,10,10,9,25,14,31,0.00,0,,238
2014-1-20,42,30,18,29,26,13,85,71,57,30.06,29.91,29.72,10,7,0,22,8,29,0.16,5,Fog-Snow,348
2014-1-21,18,11,3,11,-1,-8,83,69,55,30.41,30.27,30.06,10,6,1,23,9,35,0.06,4,Snow,352
2014-1-22,21,12,2,10,3,-10,76,68,60,30.37,30.13,29.97,10,8,0,23,11,34,T,7,Snow,289
2014-1-23,6,1,-5,-7,-11,-13,72,64,56,30.75,30.64,30.40,10,10,10,16,9,24,0.00,0,,295
2014-1-24,34,15,-5,20,3,-11,78,60,42,30.65,30.11,29.60,10,10,8,35,18,45,T,4,Snow,219
2014-1-25,36,24,11,30,8,-5,82,57,32,29.98,29.78,29.54,10,10,10,28,12,40,T,4,,287
2014-1-26,44,26,8,30,16,-7,67,55,43,30.04,29.66,29.50,10,8,1,32,15,54,0.01,7,Rain-Snow,295
2014-1-27,8,3,-2,-6,-10,-14,66,56,46,30.56,30.35,30.07,10,10,10,25,11,36,T,4,,305
2014-1-28,13,4,-5,-3,-7,-12,75,61,46,30.56,30.46,30.34,10,10,10,16,6,22,0.00,0,,255
2014-1-29,31,17,2,8,3,-5,83,58,32,30.33,30.21,30.04,10,10,10,23,10,26,0.00,0,,211
2014-1-30,36,29,21,27,18,8,85,60,35,30.03,29.85,29.72,10,7,1,38,18,48,0.01,5,Snow,226
2014-1-31,21,20,18,17,13,10,84,76,67,30.22,30.13,30.03,10,4,0,10,5,16,0.16,8,Snow,21